Location: D?dkov
(49.6203°N, 14.5442°E)
Time: 07:47:28
(UTC+00:00)

Daily predictions for brighter satellites

Satellite Brightness Start Highest point End
(mag) Time Altitude Azimuth Time Altitude Azimuth Time Altitude Azimuth
Cosmos 1455 2.6 19:52:36 10° N 19:56:19 48° ENE 20:00:01 10° SSE
Meteor 2-5 Rocket 3.7 19:51:11 10° S 19:56:40 71° E 20:02:13 10° NNE
USA 245 3.5 19:52:14 10° SSE 19:56:54 73° ENE 20:00:37 10° N
Cosmos 1607 4.0 19:51:00 10° SSW 19:57:06 59° ESE 20:03:10 10° NE
SPOT 1/Viking Rocket 4.1 19:52:03 10° S 19:57:07 60° W 20:02:14 10° NNW
NOSS 2-1 (C) 4.0 19:53:21 10° NW 19:57:39 75° NE 20:03:42 10° SE
USA 32 4.3 19:53:54 10° SSE 19:58:58 54° E 20:04:05 10° NNE
USA 267 4.1 19:54:15 10° ENE 19:59:38 27° SE 20:05:00 10° S
Ariane Rocket 3.4 19:55:11 10° S 20:00:15 65° WSW 20:05:20 10° NNW
Cosmos 1954 Rocket 4.1 19:56:18 10° NNW 20:01:38 87° ENE 20:06:52 10° SSE
NOSS 2-1 (D) 4.0 20:03:38 10° NW 20:08:00 86° NE 20:14:11 10° SE
Cosmos 1980 Rocket 4.1 20:03:46 10° N 20:08:06 22° NE 20:12:25 10° E
Cosmos 1536 Rocket 4.3 20:06:40 10° SSE 20:10:33 34° E 20:14:30 10° NNE
Cosmos 1697 Rocket 3.8 20:06:07 10° NNW 20:11:13 34° NE 20:16:16 10° ESE
Cosmos 2228 4.2 20:07:54 10° N 20:11:37 28° ENE 20:15:17 10° SE
SPOT 5 2.7 20:07:35 10° SSE 20:12:00 69° ENE 20:16:20 10° N
H-2A R/B 3.4 20:08:25 10° N 20:12:36 43° WNW 20:16:49 10° SW
Tiangong 2.9 20:14:21 10° SW 20:16:33 17° S 20:18:24 12° SSE
Cosmos 1975 Rocket 3.6 20:12:23 10° SSW 20:16:48 64° WNW 20:21:13 10° N
CARTOSAT-1 4.1 20:13:48 10° S 20:18:02 56° W 20:22:19 10° NNW
IRAS Rocket 4.4 20:13:38 10° NNE 20:19:17 84° WNW 20:24:52 10° SSW
Cosmos 1703 4.3 20:16:10 10° SSE 20:19:27 29° E 20:22:48 10° NNE
Cosmos 1656 3.8 20:15:51 10° NNW 20:21:18 68° ENE 20:26:30 12° SE
Cosmos 2084 3.1 20:18:14 10° SW 20:22:04 72° SE 20:25:56 10° NE
USA 276 2.4 20:27:17 10° SW 20:30:07 40° SSE 20:32:58 10° E
Spot 2 Rocket 3.6 20:26:01 10° SSE 20:31:06 80° WSW 20:36:16 10° NNW
ATLAS 2AS CENTAUR R/B 2.9 20:24:47 10° NW 20:31:52 66° SW 20:37:59 12° SSE
Cosmos 1544 Rocket 3.9 20:28:57 10° NNW 20:33:15 63° W 20:37:31 10° S
Meteor 1-24 Rocket 4.0 20:29:05 10° SSW 20:34:22 68° WNW 20:39:49 10° N
USA 234 3.7 20:29:09 10° ESE 20:35:37 65° NNE 20:42:07 10° WNW
Lacrosse 5 2.2 20:31:41 10° WNW 20:36:42 56° SW 20:40:57 14° SSE
Cosmos 1452 Rocket 3.8 20:32:34 10° S 20:37:36 47° ESE 20:42:38 10° NNE
X-37B 1.3 20:37:34 10° SW 20:40:02 28° S 20:41:43 16° ESE
Cosmos 1833 Rocket 3.5 20:36:05 11° SSE 20:40:49 32° ESE 20:45:45 10° NE
Terra 1.8 20:38:02 12° SSE 20:42:28 89° W 20:47:16 10° NNW
Cosmos 2184 Rocket 4.0 20:39:56 10° N 20:46:09 84° E 20:51:50 13° S
FALCON 9 DEB 4.1 20:43:09 10° W 20:46:20 47° N 20:49:31 10° ENE
Resurs 01 Rocket 4.2 20:46:53 10° SW 20:49:36 16° W 20:52:20 10° NW
Cosmos 724 4.2 20:47:13 10° SSW 20:53:01 81° SE 20:58:51 10° NE
CZ-4B R/B 4.2 20:53:16 10° NNW 20:54:47 13° WNW 20:56:17 10° W
Helios 1A Rocket 3.8 20:51:31 10° S 20:55:24 44° W 20:59:21 10° NNW
Lacrosse 5 rocket 3.1 20:56:41 10° W 20:59:32 20° SW 21:01:56 12° S
Cosmos 1271 Rocket 4.3 20:56:54 10° NNW 21:00:30 32° W 21:04:02 10° SSW
Cosmos 2082 Rocket 3.6 21:01:01 16° SE 21:03:44 22° E 21:07:59 10° NE
Meteor 2-1 Rocket 4.3 20:58:23 10° N 21:03:54 69° ENE 21:08:05 18° SSE
ERS-1 Rocket 3.8 21:03:41 10° S 21:08:27 44° W 21:13:18 10° NNW
RESURS DK-1 2.3 21:06:18 10° NNW 21:10:27 79° WSW 21:13:07 21° SSE
Cosmos 2058 Rocket 3.9 21:10:58 10° N 21:15:06 38° ENE 21:17:48 19° SE
CZ-2C R/B 4.2 21:11:28 10° N 21:16:01 59° WNW 21:20:26 10° SSW
Cosmos 1892 Rocket 4.1 21:16:25 21° SSE 21:18:58 42° E 21:23:06 10° NNE
ARIANE 5 R/B 3.3 21:18:10 15° S 21:21:38 49° W 21:25:58 10° NNW
Cosmos 1741 Rocket 4.4 21:16:49 10° NNW 21:22:03 60° WSW 21:25:51 19° S
Cosmos 968 Rocket 3.9 21:18:36 10° NNW 21:23:42 53° ENE 21:27:23 18° SE
Cosmos 1825 4.0 21:24:12 15° ESE 21:25:26 17° E 21:27:54 10° NE
Cosmos 2344 4.3 21:19:36 10° NW 21:28:20 89° NE 21:38:57 15° SE
SL-8 R/B 3.8 21:25:06 10° W 21:29:51 59° SSW 21:33:28 17° ESE
GP-B 3.3 21:26:57 10° N 21:31:21 59° E 21:33:53 24° SSE
Cosmos 2181 Rocket 4.5 21:35:23 21° SSE 21:39:13 45° E 21:45:05 10° NNE
ADEOS Rocket 4.1 21:33:32 15° SE 21:39:13 49° ENE 21:46:32 10° N
ASTEX 1 3.4 21:34:23 10° N 21:39:25 81° E 21:42:45 21° S
Cosmos 1869 4.5 21:36:20 10° N 21:39:48 30° ENE 21:41:42 20° ESE
COSMOS 2406 3.4 21:37:53 19° S 21:41:59 56° ESE 21:47:37 10° NE
USA 267 3.2 21:36:45 10° ENE 21:43:19 78° SE 21:49:53 10° SW
Cosmos 2369 3.7 21:38:35 10° NNW 21:44:21 83° ENE 21:48:09 22° SSE
SL-16 R/B 3.8 21:40:34 10° NNW 21:45:29 29° NE 21:50:22 10° ESE
Cosmos 2228 4.4 21:45:22 10° NNW 21:49:07 31° W 21:52:05 14° SSW
Okean 1-7 Rocket 4.4 21:50:04 25° SE 21:52:01 38° E 21:56:11 10° NNE
Cosmos 1633 4.5 21:51:28 15° ESE 21:52:16 16° E 21:54:27 10° NE
Nadezhda 1 Rocket 4.4 21:47:08 11° SSW 21:52:58 58° WNW 21:58:58 10° N
Cosmos 1980 Rocket 2.2 21:47:14 10° NNW 21:52:59 85° ENE 21:56:37 23° SSE
Cosmos 1606 Rocket 4.4 21:50:11 10° NNW 21:54:16 42° W 21:56:56 19° SSW
BREEZE-M DEB (TANK) 4.4 21:42:02 10° SW 21:55:11 49° SSE 21:59:10 10° E
Cosmos 1697 Rocket 3.1 21:49:58 10° NW 21:55:25 51° WSW 21:58:44 23° S
Cosmos 1892 2.7 21:55:58 32° S 21:57:31 66° E 22:01:16 10° NNE
SJ 16-02 3.5 21:55:10 10° N 21:58:22 19° NE 22:01:33 10° E
Cosmos 2084 Rocket 3.1 21:56:57 10° NW 22:00:50 81° SW 22:02:43 30° SE
Meteor 1-11 4.2 21:57:29 22° S 22:01:16 83° E 22:06:53 10° NNE
USA 276 1.9 22:02:41 10° W 22:05:42 84° N 22:08:43 10° E
In-Cosmos 22 Rocket 4.2 22:06:27 25° S 22:09:43 67° E 22:15:11 10° NNE
X-37B 2.9 22:12:39 10° WSW 22:12:57 12° WSW 22:12:57 12° WSW
Cosmos 1408 2.8 22:15:25 29° SW 22:16:55 58° WNW 22:20:20 10° N
Lacrosse 5 4.0 22:16:49 10° W 22:18:43 12° WSW 22:20:08 11° SW
USA 234 3.4 22:14:25 22° SSE 22:18:44 58° SW 22:25:13 10° WNW
Terra 4.2 22:18:54 10° WSW 22:20:55 13° W 22:22:58 10° WNW
FALCON 9 DEB 3.7 22:19:42 10° WNW 22:22:56 54° NNE 22:26:10 10° E
Cosmos 1833 Rocket 3.5 22:19:06 10° SW 22:24:32 49° NW 22:30:01 10° NNE
Cosmos 2322 Rocket 3.4 22:19:32 10° NNW 22:24:48 37° NE 22:30:04 10° ESE
Cosmos 2333 Rocket 4.5 22:20:45 10° N 22:25:05 21° NE 22:29:23 10° E
Cosmos 1867 3.6 22:22:48 10° NW 22:28:17 74° SW 22:31:17 27° SSE
Cosmos 2278 3.7 22:23:19 10° NNW 22:29:05 86° WSW 22:32:24 26° SSE
SL-8 Rocket 4.3 22:23:47 10° NNW 22:29:55 59° W 22:33:46 23° SSW
ATLAS 5 CENTAUR R/B 2.3 22:30:25 27° SE 22:30:41 28° ESE 22:34:12 10° ENE
Cosmos 1812 Rocket 3.7 22:27:54 10° N 22:32:23 66° ENE 22:34:25 31° SSE
Cosmos 1503 Rocket 4.5 22:27:25 10° NNW 22:32:41 57° ENE 22:36:07 21° SE
ALOS 2 2.6 22:32:45 32° S 22:34:42 72° WSW 22:39:06 10° NNW
Cosmos 1302 Rocket 4.3 22:31:56 18° SW 22:35:50 65° WNW 22:41:02 10° NNE
Cosmos 2218 Rocket 4.4 22:35:44 10° NNW 22:42:00 58° W 22:45:53 24° SSW
Cosmos 2366 rocket 4.4 22:39:36 10° NNW 22:45:44 55° W 22:49:34 23° SSW
Aureole 1 Rocket 4.4 22:39:32 10° NNW 22:46:24 87° WSW 22:51:53 23° SSE
Cosmos 2082 Rocket 2.4 22:42:49 17° SW 22:47:16 72° WNW 22:52:59 10° NNE
Cosmos 1602 Rocket 3.5 22:45:32 35° S 22:47:18 79° E 22:51:39 10° NNE
H-2A R/B 3.7 22:44:55 10° N 22:49:06 68° WNW 22:51:09 29° SSW
Cosmos 1825 3.0 22:58:50 26° SW 23:00:27 41° WNW 23:04:02 10° N
Cosmos 2360 Rocket 3.1 22:58:56 10° NNW 23:04:26 46° NE 23:09:52 10° SE
ERS-2 2.0 23:01:09 10° NNE 23:04:45 86° WNW 23:05:53 42° SSW
Cosmos-2242 3.0 23:02:23 10° NNW 23:06:38 72° W 23:08:16 36° S
Cosmos 1953 Rocket 4.4 23:09:48 27° SE 23:11:41 41° E 23:15:52 10° NNE
Cosmos 1626 Rocket 4.5 23:10:22 22° SW 23:12:39 40° WNW 23:16:46 10° N
Cosmos 1606 2.7 23:13:11 10° NNW 23:17:02 75° W 23:18:18 40° S
Cosmos 2058 3.0 23:16:21 35° SSE 23:17:58 66° E 23:22:08 10° NNE
Cosmos 1934 Rocket 4.0 23:12:29 10° N 23:18:35 74° E 23:22:23 24° SSE
BREEZE-M DEB (TANK) 4.2 23:14:50 10° W 23:18:46 73° SSW 23:36:32 10° ESE
ADEOS Rocket 4.1 23:20:28 22° SSW 23:24:45 44° W 23:32:00 10° NNW
Cosmos 1825 Rocket 3.5 23:22:58 35° S 23:24:45 84° E 23:29:06 10° N
USA 267 4.0 23:19:51 10° ENE 23:26:12 55° NNW 23:32:33 10° W
Cosmos 1633 3.4 23:25:15 28° WSW 23:26:27 38° WNW 23:29:44 10° N
CRYOSAT 2 4.3 23:25:28 31° S 23:27:53 87° W 23:32:49 10° N
SL-16 R/B 2.2 23:24:24 10° NNW 23:30:02 65° WSW 23:33:07 27° S
SL-19 R/B 4.3 23:31:17 34° SSE 23:32:47 75° ENE 23:36:53 10° NNW
Cosmos 972 Rocket 4.2 23:30:01 10° NNW 23:35:03 69° ENE 23:38:53 19° SSE
Cosmos 1980 Rocket 3.9 23:32:34 10° WNW 23:36:13 18° W 23:38:21 15° SW
SJ 16-02 1.4 23:32:58 10° NNW 23:37:22 65° WSW 23:39:13 33° S
Cosmos 1842 Rocket 4.2 23:35:54 10° N 23:40:18 52° ENE 23:43:02 21° SE
Gbstr 26 Del rocket 4.5 23:39:33 23° SSE 23:40:25 24° SE 23:44:43 10° E
USA 276 1.8 23:38:24 10° W 23:41:25 76° SSW 23:44:25 10° ESE
Meteor 2-2 Rocket 4.4 23:36:25 10° NNW 23:42:24 72° W 23:45:55 26° S
Cosmos 2219 Rocket 3.3 23:39:23 10° NNW 23:44:48 43° NE 23:50:12 10° ESE
CZ-2D R/B 3.7 23:45:46 10° NE 23:50:02 25° E 23:53:35 13° SE
Cosmos 1340 Rocket 2.7 23:48:44 36° SSW 23:50:16 88° WNW 23:54:14 10° NNE
